Date,TemperatureHighF,TemperatureAvgF,TemperatureLowF,DewpointHighF,DewpointAvgF,DewpointLowF,HumidityHigh,HumidityAvg,HumidityLow,PressureMaxIn,PressureMinIn,WindSpeedMaxMPH,WindSpeedAvgMPH,GustSpeedMaxMPH,PrecipitationSumIn
2013-1-1,42,39,30,32,29,18,78,68,58,30.03,29.86,11,4,0,0.00
2013-1-2,34,28,24,18,16,13,70,61,51,30.20,30.01,9,2,0,0.00
2013-1-3,35,28,22,21,18,17,86,67,51,30.22,30.10,8,2,0,0.00
2013-1-4,38,33,27,25,23,21,80,68,58,30.14,30.00,10,3,0,0.00
2013-1-5,42,34,29,26,23,21,81,66,50,30.32,30.06,10,2,0,0.00
2013-1-6,48,37,31,37,31,25,97,79,55,30.26,29.99,11,1,0,0.05
2013-1-7,47,37,26,33,28,24,91,72,46,30.43,30.08,6,1,0,0.00
2013-1-8,51,35,24,35,30,22,96,81,55,30.46,30.36,10,1,0,0.01
2013-1-9,52,42,29,43,36,28,97,80,59,30.41,30.16,10,2,0,0.00
2013-1-10,50,43,33,34,29,27,84,60,42,30.55,30.29,8,2,0,0.00
2013-1-11,48,41,32,47,38,28,99,88,75,30.53,30.07,8,1,0,0.59
2013-1-12,48,46,44,47,46,44,100,99,96,30.18,30.07,4,0,0,0.00
2013-1-13,56,48,42,52,47,42,100,97,84,30.16,30.02,7,1,0,0.01
2013-1-14,58,53,40,57,48,30,100,84,48,30.29,29.96,7,1,0,0.07
2013-1-15,39,38,36,38,33,29,97,83,69,30.35,30.21,3,0,0,0.31
2013-1-16,40,36,34,39,36,34,99,98,94,30.21,29.81,7,1,0,0.77
2013-1-17,43,39,37,37,34,30,97,81,63,30.10,29.96,8,1,0,0.00
2013-1-18,38,30,24,30,17,8,76,59,38,30.52,30.00,11,2,0,0.00
2013-1-19,54,40,26,31,26,15,76,59,39,30.43,29.95,17,5,0,0.00
2013-1-20,56,45,32,33,27,15,70,52,30,30.06,29.73,14,5,0,0.00
2013-1-21,33,29,26,26,18,12,93,63,43,30.12,29.85,7,1,0,0.00
2013-1-22,26,20,14,20,4,-2,79,51,38,30.25,29.86,12,6,0,0.00
2013-1-23,20,14,9,6,2,-3,88,59,43,30.30,30.21,12,3,0,0.00
2013-1-24,25,17,8,8,4,-1,89,60,33,30.45,30.15,10,2,0,0.00
2013-1-25,25,17,9,18,7,0,90,66,45,30.47,30.09,6,2,0,0.00
2013-1-26,28,19,7,15,10,5,92,70,47,30.41,30.08,8,2,0,0.02
2013-1-27,35,23,10,18,13,7,88,68,46,30.55,30.41,8,1,0,0.01
2013-1-28,36,30,19,35,28,16,98,90,78,30.53,30.03,10,2,0,0.10
2013-1-29,54,43,33,46,40,33,99,91,70,30.16,30.03,5,1,0,0.00
2013-1-30,69,56,43,61,54,43,100,91,76,30.07,29.38,19,4,0,0.01
2013-1-31,62,44,30,60,30,-100,96,62,40,29.85,29.12,26,-3,0,0.30
2013-2-1,31,28,23,22,12,7,78,51,38,30.28,29.85,12,4,0,0.00
2013-2-2,32,25,18,22,11,6,91,57,36,30.34,30.07,11,3,0,0.00
2013-2-3,32,26,21,25,22,19,95,86,70,30.07,29.81,5,1,0,0.04
2013-2-4,30,26,22,24,15,11,93,64,46,30.03,29.86,13,4,0,0.00
2013-2-5,33,31,27,32,29,22,96,92,83,29.98,29.90,4,0,0,0.01
2013-2-6,40,33,26,31,26,19,97,75,51,30.37,29.92,12,2,0,0.01
2013-2-7,35,28,21,32,20,15,89,74,58,30.51,30.30,6,1,0,0.00
2013-2-8,42,37,30,41,36,29,98,94,87,30.30,29.63,11,4,0,0.95
2013-2-9,34,29,22,30,20,9,98,74,49,30.36,29.76,15,4,0,0.13
2013-2-10,41,27,13,25,14,9,88,63,30,30.50,30.34,7,1,0,0.06
2013-2-11,54,45,31,54,44,26,100,95,81,30.36,29.66,11,3,0,0.28
2013-2-12,47,41,30,43,29,26,94,64,49,29.99,29.76,14,4,0,0.00
2013-2-13,43,34,24,32,28,23,97,80,56,29.98,29.69,5,1,0,0.02
2013-2-14,48,37,32,36,33,31,99,87,54,30.04,29.71,5,2,0,0.15
2013-2-15,58,43,30,39,35,29,98,75,40,30.05,29.92,8,2,0,0.01
2013-2-16,44,37,32,35,30,19,93,76,57,29.97,29.74,5,2,0,0.00
2013-2-17,33,28,20,18,8,2,59,44,34,30.05,29.69,18,6,0,0.00
2013-2-18,36,26,18,15,8,2,59,47,34,30.29,30.06,14,4,0,0.00
2013-2-19,52,39,26,46,32,15,98,77,51,30.24,29.70,17,3,0,0.29
2013-2-20,38,31,26,29,16,11,70,55,44,30.04,29.77,17,6,0,0.00
2013-2-21,36,29,24,17,15,12,67,57,45,30.29,30.02,13,5,0,0.00
2013-2-22,37,31,23,35,25,16,94,77,67,30.41,30.27,7,1,0,0.01
2013-2-23,46,41,35,46,41,34,99,98,94,30.27,29.79,7,2,0,0.40
2013-2-24,48,40,32,41,34,23,99,81,58,30.01,29.76,15,4,0,0.01
2013-2-25,44,36,28,31,27,23,87,70,54,30.24,30.01,5,1,0,0.00
2013-2-26,45,36,26,39,32,24,97,85,65,30.28,29.84,18,4,0,0.28
2013-2-27,53,46,40,52,44,39,100,91,70,29.84,29.50,17,4,0,0.46
2013-2-28,49,43,37,41,36,29,93,75,59,29.65,29.57,7,2,0,0.01
2013-3-1,45,39,32,33,30,27,92,72,53,29.80,29.63,7,3,0,0.00
2013-3-2,42,36,31,27,25,24,74,66,54,29.81,29.71,13,3,0,0.00
2013-3-3,38,33,28,23,21,19,73,63,53,29.79,29.70,9,4,0,0.00
2013-3-4,43,34,28,24,21,18,71,59,46,29.94,29.79,11,5,0,0.00
2013-3-5,49,37,29,30,26,23,89,66,45,30.04,29.94,7,2,0,0.00
2013-3-6,40,38,29,38,35,27,94,87,80,29.97,29.77,19,6,0,0.20
2013-3-7,40,36,34,36,33,30,97,88,77,30.08,29.89,11,3,0,0.06
2013-3-8,41,34,31,36,33,30,98,93,72,30.19,30.01,7,2,0,0.25
2013-3-9,57,42,30,30,26,19,85,58,24,30.33,30.18,6,2,0,0.00
2013-3-10,47,36,26,37,32,25,97,85,68,30.40,30.32,9,2,0,0.00
2013-3-11,58,45,32,49,42,31,99,89,62,30.33,30.10,11,2,0,0.00
2013-3-12,57,53,47,57,51,41,99,92,80,30.09,29.69,10,4,0,0.84
2013-3-13,51,43,36,41,32,27,87,66,40,29.92,29.82,15,3,0,0.00
2013-3-14,42,36,31,27,18,12,67,50,34,29.99,29.89,15,5,0,0.00
2013-3-15,50,39,29,29,21,12,61,49,41,30.03,29.74,10,4,0,0.00
2013-3-16,42,36,33,32,30,24,96,80,56,29.93,29.78,5,1,0,0.01
2013-3-17,38,33,28,33,25,20,97,74,50,30.31,29.93,9,1,0,0.22
2013-3-18,38,34,26,38,28,17,97,80,61,30.40,29.97,12,4,0,0.43
2013-3-19,49,41,38,39,37,20,99,87,45,29.95,29.72,11,2,0,0.18
2013-3-20,48,39,31,27,21,18,69,49,33,29.93,29.80,14,4,0,0.00
2013-3-21,38,33,30,29,24,15,87,69,44,29.82,29.66,7,2,0,0.00
2013-3-22,42,34,27,23,20,15,72,57,42,29.92,29.78,15,5,0,0.00
2013-3-23,47,38,29,24,22,21,74,54,37,29.95,29.84,12,4,0,0.00
2013-3-24,47,38,28,30,24,20,76,58,40,29.98,29.71,6,1,0,0.00
2013-3-25,39,36,33,35,33,29,98,90,73,29.71,29.46,8,2,0,0.52
2013-3-26,50,42,33,38,33,30,98,74,50,29.89,29.61,11,2,0,0.03
2013-3-27,52,43,34,33,30,25,78,60,36,30.01,29.89,8,3,0,0.00
2013-3-28,49,43,34,33,31,29,85,64,48,30.13,30.00,6,2,0,0.00
2013-3-29,55,45,31,32,30,28,88,59,37,30.17,30.07,9,2,0,0.00
2013-3-30,58,45,30,35,29,23,93,59,27,30.19,30.08,6,1,0,0.00
2013-3-31,56,46,33,48,37,29,99,75,41,30.15,29.70,13,3,0,0.42
2013-4-1,65,51,39,49,39,17,99,67,38,29.93,29.63,12,4,0,0.02
2013-4-2,45,37,28,21,16,14,69,44,29,30.11,29.94,13,3,0,0.00
2013-4-3,47,39,32,18,16,12,54,40,27,30.31,30.11,14,4,0,0.00
2013-4-4,52,40,28,31,22,13,70,51,31,30.41,30.12,9,2,0,0.00
2013-4-5,64,48,38,41,31,22,97,58,22,30.11,29.72,7,2,0,0.11
2013-4-6,51,42,36,30,23,16,78,49,28,30.33,30.02,12,3,0,0.00
2013-4-7,61,50,34,45,38,29,84,65,45,30.33,30.03,13,4,0,0.00
2013-4-8,75,60,48,52,47,44,88,65,38,30.08,29.98,14,2,0,0.00
2013-4-9,84,69,58,55,52,45,81,58,28,29.99,29.91,15,3,0,0.00
2013-4-10,80,64,55,59,54,49,97,69,47,29.94,29.79,9,3,0,0.24
2013-4-11,62,56,46,62,53,44,100,92,77,30.01,29.77,12,3,0,0.01
2013-4-12,46,44,43,45,44,42,100,98,90,29.99,29.70,12,3,0,1.07
2013-4-13,60,49,40,46,42,37,100,81,46,29.99,29.74,8,2,0,0.01
2013-4-14,61,52,40,46,38,28,99,64,33,30.20,29.98,14,2,0,0.00
2013-4-15,56,49,44,44,37,33,88,63,48,30.38,30.20,9,3,0,0.00
2013-4-16,70,58,47,57,51,44,92,79,62,30.37,30.14,11,3,0,0.00
2013-4-17,72,60,48,57,49,43,96,70,36,30.29,30.11,7,2,0,0.00
2013-4-18,59,53,44,58,48,41,99,85,69,30.34,30.10,12,3,0,0.01
2013-4-19,77,67,58,66,62,57,98,87,67,30.09,29.67,18,5,0,0.06
2013-4-20,65,53,48,64,38,27,96,62,35,30.30,29.68,11,4,0,0.15
2013-4-21,54,44,36,32,27,21,83,52,35,30.62,30.30,11,2,0,0.00
2013-4-22,47,42,30,40,35,29,96,78,64,30.64,30.47,14,4,0,0.00
2013-4-23,50,45,42,44,40,36,96,84,78,30.48,30.12,7,2,0,0.00
2013-4-24,75,55,37,56,47,36,97,77,49,30.12,29.85,10,3,0,0.00
2013-4-25,65,54,44,54,38,29,89,56,27,30.28,29.90,8,3,0,0.02
2013-4-26,66,53,38,39,36,29,93,57,25,30.40,30.28,8,1,0,0.00
2013-4-27,68,53,36,40,35,31,94,55,26,30.43,30.30,5,1,0,0.00
2013-4-28,69,55,39,47,38,29,92,56,29,30.33,30.22,11,2,0,0.00
2013-4-29,56,54,51,52,50,48,96,89,75,30.24,30.17,8,2,0,0.20
2013-4-30,63,55,45,50,44,34,94,69,38,30.33,30.19,11,2,0,0.00
2013-5-1,62,51,38,48,42,36,98,74,44,30.48,30.32,9,2,0,0.00
2013-5-2,67,54,38,49,43,37,98,69,40,30.47,30.34,8,1,0,0.00
2013-5-3,58,52,44,47,43,39,93,73,53,30.45,30.36,12,2,0,0.00
2013-5-4,62,51,40,49,43,39,99,77,48,30.38,30.26,11,2,0,0.00
2013-5-5,56,48,40,46,42,38,95,79,63,30.30,30.23,10,2,0,0.00
2013-5-6,60,52,47,53,48,45,97,86,71,30.27,30.16,6,1,0,0.00
2013-5-7,65,56,50,59,54,49,99,93,80,30.17,30.08,6,1,0,0.04
2013-5-8,73,62,56,64,58,54,100,90,62,30.08,29.94,8,2,0,0.68
2013-5-9,71,61,55,60,56,54,100,85,60,29.99,29.90,6,1,0,0.50
2013-5-10,83,67,54,62,58,53,100,75,39,30.01,29.89,6,1,0,0.00
2013-5-11,78,66,62,68,64,59,100,93,68,29.91,29.69,8,2,0,1.45
2013-5-12,68,60,50,65,46,30,100,65,29,29.97,29.67,13,2,0,0.04
2013-5-13,57,50,41,37,32,26,81,54,35,30.12,29.97,8,2,0,0.00
2013-5-14,61,49,35,37,32,26,93,57,27,30.16,30.04,5,1,0,0.00
2013-5-15,74,61,46,60,51,34,85,70,51,30.10,29.70,10,2,0,0.00
2013-5-16,81,68,56,63,58,51,98,73,41,29.85,29.71,5,1,0,0.02
2013-5-17,74,64,50,61,48,41,95,60,32,30.19,29.84,5,1,0,0.00
2013-5-18,65,58,51,56,53,47,96,85,69,30.31,30.20,7,1,0,0.07
2013-5-19,60,57,55,60,57,54,100,99,97,30.30,30.16,8,2,0,0.28
2013-5-20,82,68,59,71,66,59,100,92,67,30.18,29.97,3,0,0,0.01
2013-5-21,87,75,64,72,69,64,100,82,59,29.98,29.85,6,1,0,0.00
2013-5-22,88,74,67,76,70,66,99,87,60,29.92,29.82,5,1,0,0.00
2013-5-23,83,73,67,74,69,66,99,87,65,29.90,29.76,11,3,0,0.41
2013-5-24,67,56,44,66,55,43,100,95,82,29.98,29.70,5,2,0,0.23
2013-5-25,59,51,43,46,42,36,97,73,46,30.04,29.94,7,2,0,0.08
2013-5-26,69,57,46,43,39,36,83,55,30,30.21,30.01,9,2,0,0.00
2013-5-27,75,60,39,47,42,38,99,58,28,30.27,30.14,5,1,0,0.00
2013-5-28,67,59,49,62,55,47,100,88,55,30.23,30.11,6,0,0,0.53
2013-5-29,90,74,58,73,65,58,100,78,46,30.12,30.01,4,1,0,0.00
2013-5-30,94,82,69,71,68,64,90,65,37,30.14,30.05,5,1,0,0.00
2013-5-31,96,82,69,72,67,58,95,65,30,30.13,29.99,7,1,0,0.00
2013-6-1,93,80,68,72,68,66,93,70,43,30.03,29.91,7,2,0,0.00
2013-6-2,90,78,69,73,70,68,97,77,53,29.93,29.79,9,2,0,0.50
2013-6-3,80,72,67,72,69,67,100,93,70,29.86,29.78,4,1,0,0.52
2013-6-4,75,65,55,66,51,47,99,65,38,30.11,29.87,3,0,0,0.00
2013-6-5,73,62,48,58,53,46,96,75,53,30.20,30.11,6,1,0,0.00
2013-6-6,70,63,56,63,60,51,100,88,52,30.14,29.99,11,3,0,0.04
2013-6-7,69,64,61,69,64,61,100,99,97,30.00,29.57,7,1,0,2.30
2013-6-8,78,68,57,68,64,57,100,88,70,30.06,29.54,4,1,0,0.07
2013-6-9,84,72,59,67,62,59,99,75,48,30.18,30.06,2,0,0,0.00
2013-6-10,71,68,64,71,67,63,100,97,85,30.15,29.81,5,1,0,1.58
2013-6-11,82,74,68,71,64,-100,100,76,61,29.80,29.64,5,-24,0,0.03
2013-6-12,81,71,63,63,57,-100,89,65,48,29.85,29.74,6,-20,0,0.03
2013-6-13,74,65,60,69,59,-100,99,87,65,29.84,29.41,11,-18,0,0.89
2013-6-14,74,61,54,62,57,53,99,87,58,29.91,29.48,6,1,0,0.01
2013-6-15,82,69,55,63,58,55,99,73,43,30.02,29.91,4,0,0,0.02
2013-6-16,85,72,60,68,63,58,97,77,53,30.00,29.80,14,1,0,0.00
2013-6-17,88,75,64,71,68,64,99,79,52,29.92,29.83,5,1,0,0.00
2013-6-18,79,68,63,71,65,62,100,92,73,29.90,29.80,4,0,0,1.02
2013-6-19,78,68,58,64,58,52,100,76,43,30.16,29.86,5,0,0,1.03
2013-6-20,82,68,55,61,57,54,99,70,44,30.28,30.17,8,1,0,0.00
2013-6-21,82,69,55,60,57,54,98,69,45,30.32,30.24,6,1,0,0.00
2013-6-22,86,70,56,65,60,55,99,73,45,30.27,30.14,6,1,0,0.00
2013-6-23,88,75,63,76,68,57,99,79,57,30.20,30.07,5,1,0,0.60
2013-6-24,92,78,71,78,72,66,100,84,56,30.09,29.97,3,0,0,0.02
2013-6-25,92,79,68,76,71,66,98,78,53,30.00,29.83,4,1,0,0.02
2013-6-26,92,79,70,77,70,66,98,76,49,29.86,29.76,3,0,0,0.12
2013-6-27,88,78,71,77,73,71,100,87,62,29.82,29.58,8,1,0,0.07
2013-6-28,88,78,71,74,72,68,97,83,58,29.59,29.48,7,1,0,0.03
2013-6-29,87,76,67,75,70,67,99,85,55,29.71,29.49,6,1,0,0.04
2013-6-30,83,75,69,77,73,69,100,93,78,29.90,29.71,4,0,0,0.10
2013-7-1,83,75,73,77,74,71,98,95,79,30.04,29.89,4,0,0,0.23
2013-7-2,86,77,73,77,74,71,99,91,72,30.19,30.04,4,0,0,0.41
2013-7-3,86,77,70,79,74,69,100,93,77,30.25,30.16,6,1,0,0.18
2013-7-4,91,81,74,78,75,73,100,83,60,30.26,30.17,4,1,0,0.19
2013-7-5,93,83,72,78,74,71,99,76,55,30.22,30.10,7,1,0,0.00
2013-7-6,95,83,74,78,75,73,98,80,52,30.15,30.03,4,1,0,0.00
2013-7-7,95,84,74,78,75,70,95,74,54,30.08,29.94,5,1,0,0.00
2013-7-8,89,77,71,75,71,68,95,83,57,30.06,29.98,4,0,0,0.06
2013-7-9,89,79,70,75,72,68,98,80,62,30.07,29.99,6,1,0,0.01
2013-7-10,88,80,72,78,75,71,99,86,64,30.02,29.82,3,1,0,0.04
2013-7-11,86,78,74,76,74,71,99,86,64,29.90,29.82,3,0,0,0.21
2013-7-12,75,72,69,71,69,66,99,89,79,30.05,29.90,8,1,0,0.87
2013-7-13,86,77,70,78,74,70,100,91,74,30.28,30.05,6,1,0,0.06
2013-7-14,91,81,74,77,75,73,99,82,59,30.34,30.25,6,1,0,0.06
2013-7-15,94,83,73,79,75,73,99,78,56,30.26,30.12,4,0,0,0.00
2013-7-16,93,83,72,76,73,69,98,74,47,30.19,30.12,3,0,0,0.00
2013-7-17,96,84,71,77,74,71,99,74,49,30.18,30.07,4,0,0,0.00
2013-7-18,98,86,75,79,76,71,91,72,52,30.08,29.95,2,0,0,0.00
2013-7-19,98,88,79,82,78,76,95,75,53,29.98,29.81,7,1,0,0.00
2013-7-20,95,85,78,78,75,72,86,74,53,29.84,29.73,6,1,0,0.00
2013-7-21,86,77,72,76,72,67,99,85,57,29.94,29.83,11,1,0,0.05
2013-7-22,84,74,73,78,71,-100,100,94,82,29.94,29.78,5,-21,0,1.01
2013-7-23,89,78,72,77,74,72,100,88,63,29.78,29.57,4,0,0,0.01
2013-7-24,84,76,70,73,69,59,97,80,66,29.90,29.62,4,0,0,0.01
2013-7-25,70,66,64,61,60,57,90,80,68,30.03,29.90,3,0,0,0.00
2013-7-26,81,72,64,68,64,61,94,79,56,30.05,29.98,4,0,0,0.00
2013-7-27,84,73,63,70,66,63,99,81,53,30.06,29.95,6,1,0,0.00
2013-7-28,81,72,62,72,68,62,100,89,69,29.99,29.90,7,1,0,0.08
2013-7-29,86,74,65,71,67,59,100,80,46,30.11,29.95,4,0,0,0.11
2013-7-30,82,70,57,63,60,57,98,73,47,30.17,30.10,5,0,0,0.00
2013-7-31,82,71,58,66,62,58,99,77,51,30.17,30.04,5,0,0,0.00
2013-8-1,73,70,68,70,67,64,100,92,83,30.04,29.83,7,0,0,0.90
2013-8-2,86,75,67,69,67,65,100,80,53,29.93,29.80,4,0,0,0.91
2013-8-3,79,72,66,70,68,65,97,88,71,29.93,29.87,4,0,0,0.01
2013-8-4,80,70,60,65,61,56,100,75,47,29.98,29.85,3,0,0,0.02
2013-8-5,79,68,58,61,56,50,88,67,38,30.06,29.98,3,0,0,0.00
2013-8-6,80,69,56,66,59,55,98,73,46,30.12,30.04,6,1,0,0.00
2013-8-7,78,72,67,70,68,65,95,86,72,30.14,30.06,6,1,0,0.00
2013-8-8,84,75,70,77,73,70,100,92,77,30.07,29.99,5,1,0,0.23
2013-8-9,85,79,74,78,76,72,98,90,76,30.02,29.81,13,1,0,0.02
2013-8-10,83,76,70,75,69,66,99,80,58,30.04,29.86,2,0,0,0.02
2013-8-11,83,72,60,69,64,60,98,78,53,30.12,30.02,5,1,0,0.00
2013-8-12,80,73,67,73,70,67,99,90,72,30.04,29.93,4,0,0,0.00
2013-8-13,78,72,67,74,71,67,100,97,82,29.93,29.71,4,0,0,0.91
2013-8-14,74,67,58,70,56,51,96,70,52,30.05,29.74,5,1,0,0.91
2013-8-15,79,64,52,59,54,50,98,73,40,30.15,30.05,2,0,0,0.00
2013-8-16,80,67,55,60,56,53,97,72,40,30.21,30.13,8,0,0,0.00
2013-8-17,81,67,54,65,58,53,99,76,42,30.27,30.21,6,1,0,0.00
2013-8-18,76,67,60,67,62,59,97,85,59,30.26,30.13,4,0,0,0.01
2013-8-19,78,69,60,68,63,59,99,82,59,30.15,30.04,5,0,0,0.01
2013-8-20,89,75,62,72,67,62,100,81,49,30.13,30.06,2,0,0,0.00
2013-8-21,90,78,67,72,68,64,99,76,42,30.18,30.06,3,0,0,0.00
2013-8-22,82,74,70,74,71,69,97,89,75,30.07,29.89,4,0,0,0.03
2013-8-23,80,72,62,69,66,59,99,82,49,30.08,29.88,2,0,0,0.03
2013-8-24,78,68,58,62,59,53,98,76,42,30.35,30.09,5,1,0,0.00
2013-8-25,83,68,52,62,56,52,100,70,38,30.41,30.25,4,0,0,0.00
2013-8-26,84,72,62,68,63,56,89,74,56,30.26,29.93,5,1,0,0.00
2013-8-27,88,77,69,72,70,68,96,80,55,29.93,29.83,4,1,0,0.05
2013-8-28,82,73,67,75,71,66,100,93,74,29.89,29.83,3,0,0,0.06
2013-8-29,79,72,67,71,69,66,100,91,73,30.03,29.86,6,1,0,0.06
2013-8-30,84,74,68,72,69,66,97,86,66,30.02,29.88,4,1,0,0.00
2013-8-31,90,78,70,76,72,69,97,84,62,29.89,29.78,8,2,0,0.00
2013-9-1,88,76,71,77,73,69,100,91,65,29.86,29.78,7,1,0,1.14
2013-9-2,81,75,71,76,74,71,100,97,81,29.80,29.71,3,0,0,0.15
2013-9-3,82,73,64,74,68,61,100,87,56,29.89,29.71,2,0,0,0.15
2013-9-4,82,69,58,63,60,57,98,75,48,30.02,29.89,3,0,0,0.00
2013-9-5,77,68,53,65,58,48,95,74,46,30.14,29.95,4,0,0,0.00
2013-9-6,73,60,50,53,50,45,95,73,39,30.25,30.14,5,0,0,0.00
2013-9-7,80,63,45,59,52,45,99,72,37,30.14,29.92,4,0,0,0.00
2013-9-8,81,70,60,68,61,49,97,73,51,30.06,29.83,4,0,0,0.00
2013-9-9,72,63,50,61,55,49,97,77,55,30.23,30.07,7,1,0,0.00
2013-9-10,88,76,65,76,70,61,93,82,65,30.18,30.05,5,1,0,0.00
2013-9-11,95,82,73,79,74,71,97,78,53,30.12,29.97,5,1,0,0.00
2013-9-12,88,77,70,79,73,69,97,88,62,30.01,29.70,6,1,0,0.34
2013-9-13,76,68,59,69,63,52,100,83,59,29.86,29.65,5,0,0,0.59
2013-9-14,66,57,49,52,50,47,95,77,58,30.14,29.86,3,1,0,0.00
2013-9-15,74,58,42,56,50,42,99,76,45,30.23,30.09,5,0,0,0.00
2013-9-16,71,62,57,61,58,53,97,88,68,30.21,30.05,5,0,0,0.03
2013-9-17,64,55,44,53,44,41,95,70,46,30.43,30.22,4,1,0,0.03
2013-9-18,72,55,40,53,47,40,99,79,43,30.36,30.20,6,0,0,0.00
2013-9-19,77,60,46,59,53,45,99,80,44,30.21,30.08,4,0,0,0.00
2013-9-20,79,63,49,63,56,49,100,81,44,30.11,30.00,6,1,0,0.00
2013-9-21,80,66,50,69,61,49,100,87,51,30.02,29.68,7,1,0,0.06
2013-9-22,69,63,53,69,55,45,99,77,49,29.92,29.66,4,1,0,0.52
2013-9-23,66,55,44,50,46,42,96,72,51,30.05,29.92,3,1,0,0.00
2013-9-24,71,55,42,54,48,41,98,79,50,30.07,29.89,5,0,0,0.00
2013-9-25,73,57,43,56,49,42,99,80,44,29.97,29.88,3,0,0,0.00
2013-9-26,71,58,46,61,54,46,100,89,63,30.10,29.94,5,0,0,0.00
2013-9-27,67,60,51,59,55,51,100,86,63,30.26,30.10,4,0,0,0.00
2013-9-28,71,62,51,58,54,50,98,79,54,30.31,30.23,9,1,0,0.00
2013-9-29,70,57,47,60,52,46,100,85,63,30.23,30.08,8,1,0,0.00
2013-9-30,72,57,45,59,52,45,100,85,55,30.09,29.98,5,0,0,0.00
2013-10-1,80,64,51,63,58,50,100,82,55,30.03,29.91,4,0,0,0.00
2013-10-2,84,69,57,66,62,56,99,80,51,30.02,29.92,4,0,0,0.00
2013-10-3,81,67,56,64,60,55,100,79,55,30.12,30.02,5,0,0,0.00
2013-10-4,87,72,57,68,64,56,99,79,51,30.07,29.97,3,0,0,0.00
2013-10-5,76,68,64,68,65,63,99,92,77,30.09,30.01,5,1,0,0.00
2013-10-6,74,68,65,70,67,64,100,97,86,30.09,30.01,6,2,0,0.00
2013-10-7,78,68,58,72,66,57,100,94,78,30.01,29.80,10,1,0,0.30
2013-10-8,66,57,50,56,50,48,96,81,52,30.31,30.01,2,0,0,0.30
2013-10-9,62,58,50,54,51,45,96,80,64,30.36,30.25,9,1,0,0.00
2013-10-10,61,58,55,60,57,52,99,94,78,30.25,30.04,5,1,0,0.11
2013-10-11,64,62,60,63,61,59,100,97,89,30.05,29.97,6,1,0,0.50
2013-10-12,68,63,60,60,56,51,90,80,65,30.24,30.04,14,2,0,0.50
2013-10-13,61,61,61,57,56,56,86,86,85,30.24,30.24,7,4,0,0.00
2013-10-16,67,60,50,61,58,50,100,93,78,30.09,29.93,3,0,0,0.00
2013-10-17,73,64,60,65,62,60,99,92,73,29.93,29.71,5,1,0,0.00
2013-10-18,67,60,47,64,49,44,95,69,50,30.00,29.71,7,1,0,0.00
2013-10-19,63,52,40,57,48,39,99,86,65,30.01,29.78,4,0,0,0.02
2013-10-20,63,54,42,56,44,38,96,71,42,30.09,29.79,5,1,0,0.02
2013-10-21,69,51,37,47,42,37,98,74,37,30.18,30.01,5,1,0,0.00
2013-10-22,68,51,42,53,46,41,99,84,54,30.00,29.78,5,0,0,0.00
2013-10-23,53,46,39,49,42,37,96,85,67,29.83,29.61,3,0,0,0.02
2013-10-24,53,43,37,37,33,29,92,71,43,30.05,29.79,7,1,0,0.02
2013-10-25,53,43,33,37,33,30,87,70,47,30.27,30.06,7,1,0,0.00
2013-10-26,57,44,30,37,33,29,96,69,39,30.26,29.93,8,1,0,0.00
2013-10-27,58,48,37,38,36,33,85,63,43,30.15,29.90,5,1,0,0.00
2013-10-28,62,45,31,42,36,30,97,74,44,30.31,30.15,5,0,0,0.00
2013-10-29,58,45,36,45,40,35,98,83,58,30.41,30.32,7,1,0,0.00
2013-10-30,58,47,37,55,46,36,99,95,87,30.36,30.21,3,0,0,0.01
2013-10-31,70,61,51,63,58,51,100,89,75,30.25,29.83,8,2,0,0.01
2013-11-1,70,65,58,64,61,56,99,89,68,29.82,29.59,14,3,0,0.01
2013-11-2,70,59,52,60,52,43,100,79,44,29.79,29.62,5,0,0,0.00
2013-11-3,52,45,34,44,35,23,96,70,45,30.45,29.80,5,1,0,0.00
2013-11-4,46,36,27,30,26,23,89,67,45,30.66,30.45,9,1,0,0.00
2013-11-5,58,44,31,44,38,30,97,82,58,30.66,30.50,7,1,0,0.00
2013-11-6,64,51,33,57,46,33,100,85,60,30.50,30.08,9,1,0,0.00
2013-11-7,64,56,38,61,52,34,97,89,71,30.08,29.78,8,2,0,0.01
2013-11-8,49,42,34,37,31,29,91,66,47,30.26,29.97,11,3,0,0.01
2013-11-9,52,42,31,36,30,27,86,66,42,30.33,30.02,5,1,0,0.00
2013-11-10,62,50,41,39,34,28,81,57,39,30.10,29.85,12,4,0,0.00
2013-11-11,56,48,40,38,32,27,64,53,38,30.25,30.00,10,3,0,0.00
2013-11-12,50,38,29,39,28,18,94,68,52,30.32,29.96,6,3,0,0.01
2013-11-13,40,31,24,20,17,12,74,58,33,30.40,30.32,10,2,0,0.01
2013-11-14,55,41,28,25,19,14,76,47,21,30.32,30.20,9,2,0,0.00
2013-11-15,59,43,30,36,32,25,93,68,36,30.28,30.18,6,1,0,0.00
2013-11-16,56,46,36,50,43,32,98,88,78,30.35,30.26,5,0,0,0.01
2013-11-17,66,56,45,62,55,45,99,96,83,30.27,29.80,5,1,0,0.00
2013-11-18,67,60,50,64,45,30,99,62,30,29.82,29.64,10,3,0,0.00
2013-11-19,51,43,30,30,27,24,80,53,43,30.37,29.82,12,4,0,0.00
2013-11-20,45,33,24,25,21,14,88,64,30,30.61,30.36,6,1,0,0.00
2013-11-21,52,42,25,43,36,20,91,78,64,30.61,30.41,7,1,0,0.00
2013-11-22,58,52,46,52,49,42,96,89,78,30.40,29.94,5,2,0,0.00
2013-11-23,53,43,32,51,29,15,93,59,43,30.05,29.93,10,4,0,0.00
2013-11-24,31,26,22,15,4,1,51,40,33,30.43,30.04,12,6,0,0.00
2013-11-25,37,28,20,18,13,5,73,55,40,30.54,30.37,9,2,0,0.00
2013-11-26,55,39,31,55,32,19,99,76,49,30.38,29.75,10,2,0,0.01
2013-11-27,63,47,34,63,45,23,99,93,64,29.80,29.36,20,6,0,0.01
2013-11-28,37,31,26,25,18,14,79,60,40,30.50,29.82,14,4,0,0.00
2013-11-29,40,31,24,26,22,20,94,71,48,30.74,30.49,4,1,0,0.00
2013-11-30,39,32,22,31,25,16,87,76,61,30.75,30.38,6,1,0,0.00
2013-12-1,52,40,29,36,33,27,95,77,53,30.37,30.03,4,1,0,0.00
2013-12-2,54,40,30,35,33,29,95,77,42,30.03,29.89,4,0,0,0.00
2013-12-3,54,41,31,41,36,30,97,85,59,30.02,29.89,5,1,0,0.00
2013-12-4,53,43,31,47,39,30,98,88,69,30.14,30.03,5,0,0,0.00
2013-12-5,63,55,47,58,54,46,100,96,84,30.13,29.95,7,1,0,0.01
2013-12-6,62,50,38,62,50,38,100,98,95,30.14,29.89,7,2,0,0.01
2013-12-7,40,36,29,38,31,24,99,84,67,30.52,30.09,7,2,0,0.00
2013-12-8,34,29,24,33,25,19,98,84,67,30.60,30.34,3,0,0,0.00
2013-12-9,41,37,34,41,37,33,100,99,98,30.33,29.99,6,2,0,0.05
2013-12-10,34,32,26,33,31,23,99,96,88,30.19,29.91,8,2,0,0.01
2013-12-11,34,27,21,23,20,18,92,77,54,30.39,30.19,9,2,0,0.01
2013-12-12,28,22,18,19,13,8,94,69,46,30.39,30.22,8,2,0,0.00
2013-12-13,37,27,18,22,16,10,86,65,47,30.35,30.18,10,2,0,0.00
2013-12-14,50,33,26,50,31,22,100,91,78,30.46,29.70,9,2,0,0.01
2013-12-15,53,38,31,53,34,23,100,86,66,29.89,29.51,12,4,0,0.01
2013-12-16,32,27,19,25,15,10,87,62,44,30.26,29.88,15,4,0,0.00
2013-12-17,37,29,22,36,26,17,100,90,69,30.25,29.94,5,0,0,0.01
2013-12-18,38,29,23,26,22,20,93,77,54,30.21,29.94,9,3,0,0.01
2013-12-19,50,36,24,32,27,20,89,74,48,30.23,30.05,6,1,0,0.00
2013-12-20,56,47,33,51,37,31,90,72,49,30.12,30.00,10,2,0,0.00
2013-12-21,70,58,51,57,52,48,92,81,61,30.02,29.91,11,4,0,0.00
2013-12-22,72,65,61,65,61,57,95,88,77,29.98,29.83,15,5,0,0.01
2013-12-23,63,56,42,63,55,38,100,95,84,30.15,29.90,7,2,0,0.02
2013-12-24,42,36,28,36,25,15,81,66,51,30.37,30.10,9,3,0,0.00
2013-12-25,31,25,19,19,12,9,72,58,46,30.55,30.38,10,2,0,0.00
2013-12-26,40,29,21,28,23,18,92,79,60,30.44,30.18,8,1,0,0.00
2013-12-27,44,31,22,25,22,18,92,72,41,30.41,30.30,7,1,0,0.00
2013-12-28,58,41,23,32,28,21,93,64,37,30.33,30.10,10,2,0,0.00
2013-12-29,52,44,41,52,39,30,99,85,62,30.10,29.40,11,2,0,0.04
2013-12-30,46,37,25,41,31,15,97,79,60,30.20,29.73,7,3,0,0.04
2013-12-31,37,28,21,27,17,13,75,63,51,30.33,30.09,12,2,0,0.00
2014-1-1,40,30,22,30,20,12,84,66,47,30.43,30.23,9,1,0,0.00
2014-1-2,37,30,22,34,28,21,96,91,84,30.23,29.63,8,3,0,0.00